Home > Time Zones > World Clock > Weather > Japan > Naha > Past weeks

Flag for Japan Weather past 2 weeks in Naha, Okinawa, Japan

Now
82 °F

Passing clouds.


Feels Like: 85 °F
Forecast: 69 / 83 °F
Wind: 12 mph from Southeast

Location: Naha Airport

Current Time: Oct 20, 2014 at 1:23:13 PM

Latest Report: Oct 20, 2014 at 12:00 PM


Visibility: N/A

Pressure: 30.04 "Hg

Humidity: 58%

Dew point: 66 °F

Location of NahaLocation

Historic Weather in Naha — Graph

°F

Naha temperature yesterday

Maximum temperature yesterday: 81 °F (at 10:00 AM)
Minimum temperature yesterday: 73 °F (at 3:00 AM)
Average temperature yesterday: 78 °F

Past Weeks' High & Low Weather Summary

 TemperatureHumidityPressure
High86 °F (Oct 9, 12:30 PM)94% (Oct 11, 8:00 AM)30.12 "Hg (Oct 11, 8:00 AM)
Low72 °F (Oct 11, 8:00 AM)42% (Oct 7, 12:00 PM)28.20 "Hg (Oct 12, 12:00 AM)
Average78 °F67%29.78 "Hg
* Reported Oct 5 12:00 Noon — Oct 20 12:00 Noon, Naha, Weather by CustomWeather, © 2014

Note: Actual official high and low records may vary slightly from our data, if they occured in-between our weather recording intervals... More about our weather records

Advertising

Naha weather history for previous 24 hours

 ConditionsComfort  
Time TempWeatherWind HumidityBarometerVisibility
12:00 PM
Oct 20
82 °FPassing clouds.12 mph58%30.04 "HgN/A
11:30 AM82 °FPassing clouds.12 mph58%30.04 "HgN/A
11:00 AM82 °FPassing clouds.10 mph55%30.07 "HgN/A
10:30 AM82 °FPassing clouds.13 mph58%30.07 "HgN/A
10:00 AM81 °FScattered clouds.13 mph66%30.07 "HgN/A
9:30 AM81 °FPassing clouds.12 mph66%30.07 "HgN/A
9:00 AM81 °FPassing clouds.13 mph66%30.07 "HgN/A
8:30 AM79 °FPassing clouds.12 mph70%30.07 "HgN/A
8:00 AM79 °FPassing clouds.7 mph70%30.07 "HgN/A
7:30 AM77 °FPassing clouds.8 mph74%30.04 "HgN/A
7:00 AM77 °FScattered clouds.7 mph74%30.04 "HgN/A
6:30 AM77 °FPassing clouds.7 mph74%30.04 "HgN/A
6:00 AM77 °FPassing clouds.7 mph74%30.01 "HgN/A
5:30 AM77 °FPassing clouds.6 mph74%30.01 "HgN/A
5:00 AM77 °FPassing clouds.7 mph74%30.01 "HgN/A
4:30 AM77 °FPassing clouds.7 mph74%30.01 "HgN/A
4:00 AM77 °FPassing clouds.9 mph74%30.01 "HgN/A
3:30 AM77 °FPassing clouds.9 mph74%30.01 "HgN/A
3:00 AM77 °FPassing clouds.10 mph74%30.01 "HgN/A
2:30 AM77 °FPassing clouds.8 mph74%30.04 "HgN/A
2:00 AM77 °FPassing clouds.8 mph79%30.04 "HgN/A
1:30 AM77 °FPassing clouds.9 mph79%30.04 "HgN/A
1:00 AM77 °FPassing clouds.13 mph74%30.04 "HgN/A
12:30 AM77 °FPassing clouds.10 mph74%30.04 "HgN/A
12:00 AM77 °FPassing clouds.10 mph74%30.07 "HgN/A
11:30 PM
Oct 19
77 °FPassing clouds.10 mph74%30.07 "HgN/A
11:00 PM77 °FPassing clouds.10 mph74%30.07 "HgN/A
10:30 PM79 °FPassing clouds.12 mph70%30.07 "HgN/A
10:00 PM79 °FPassing clouds.10 mph70%30.07 "HgN/A
9:30 PM79 °FPassing clouds.10 mph70%30.07 "HgN/A
9:00 PM79 °FPassing clouds.12 mph70%30.07 "HgN/A
8:30 PM79 °FPassing clouds.9 mph70%30.07 "HgN/A
8:00 PM77 °FPassing clouds.9 mph74%30.07 "HgN/A
7:30 PM77 °FPassing clouds.9 mph74%30.07 "HgN/A
7:00 PM77 °FPassing clouds.9 mph74%30.04 "HgN/A
6:30 PM77 °FPassing clouds.10 mph69%30.04 "HgN/A
6:00 PM79 °FPassing clouds.12 mph65%30.04 "HgN/A
5:30 PM79 °FScattered clouds.13 mph65%30.04 "HgN/A
5:00 PM79 °FPassing clouds.14 mph65%30.04 "HgN/A
4:30 PM79 °FPassing clouds.14 mph65%30.01 "HgN/A
4:00 PM79 °FScattered clouds.13 mph65%30.01 "HgN/A
3:30 PM81 °FPartly sunny.15 mph62%30.01 "HgN/A
3:00 PM81 °FPassing clouds.14 mph66%30.04 "HgN/A
2:30 PM81 °FPassing clouds.14 mph66%30.01 "HgN/A
2:00 PM81 °FScattered clouds.15 mph62%30.01 "HgN/A
1:30 PM81 °FScattered clouds.15 mph62%30.04 "HgN/A
1:00 PM81 °FPartly sunny.14 mph62%30.04 "HgN/A
Weather by CustomWeather, © 2014

See weather overviewHow to use our weather pages